Time,TemperatureF,DewpointF,PressureIn,WindDirection,WindDirectionDegrees,WindSpeedMPH,WindSpeedGustMPH,Humidity,HourlyPrecipIn,Conditions,Clouds,dailyrainin,SoftwareType,DateUTC
2013-10-31 00:08:00,50.3,47.0,30.18,East,82,0.0,0.0,89,0.00,,,0.01,weatherlink.com 1.10,2013-10-31 04:08:00,
2013-10-31 00:23:00,49.9,47.0,30.17,East,82,0.0,0.0,89,0.00,,,0.01,weatherlink.com 1.10,2013-10-31 04:23:00,
2013-10-31 00:38:00,49.6,47.0,30.16,East,82,0.0,0.0,89,0.00,,,0.01,weatherlink.com 1.10,2013-10-31 04:38:00,
2013-10-31 00:53:00,49.1,46.0,30.17,East,82,0.0,0.0,89,0.00,,,0.01,weatherlink.com 1.10,2013-10-31 04:53:00,
2013-10-31 01:08:00,48.7,46.0,30.16,East,82,0.0,1.0,90,0.00,,,0.01,weatherlink.com 1.10,2013-10-31 05:08:00,
2013-10-31 01:23:00,48.4,46.0,30.16,East,82,0.0,0.0,90,0.00,,,0.01,weatherlink.com 1.10,2013-10-31 05:23:00,
2013-10-31 01:38:00,48.2,46.0,30.16,East,82,0.0,2.0,91,0.00,,,0.01,weatherlink.com 1.10,2013-10-31 05:38:00,
2013-10-31 01:53:00,48.2,46.0,30.16,East,82,0.0,0.0,91,0.00,,,0.01,weatherlink.com 1.10,2013-10-31 05:53:00,
2013-10-31 02:08:00,47.8,45.0,30.16,East,82,0.0,0.0,91,0.00,,,0.01,weatherlink.com 1.10,2013-10-31 06:08:00,
2013-10-31 02:23:00,47.7,46.0,30.16,East,82,0.0,0.0,92,0.00,,,0.01,weatherlink.com 1.10,2013-10-31 06:23:00,
2013-10-31 02:38:00,47.8,46.0,30.16,East,82,0.0,0.0,92,0.00,,,0.01,weatherlink.com 1.10,2013-10-31 06:38:00,
2013-10-31 02:53:00,48.1,46.0,30.15,East,82,0.0,0.0,92,0.00,,,0.01,weatherlink.com 1.10,2013-10-31 06:53:00,
2013-10-31 03:08:00,48.5,47.0,30.14,East,82,0.0,0.0,93,0.00,,,0.01,weatherlink.com 1.10,2013-10-31 07:08:00,
2013-10-31 03:23:00,48.7,47.0,30.13,East,82,0.0,0.0,93,0.00,,,0.01,weatherlink.com 1.10,2013-10-31 07:23:00,
2013-10-31 03:38:00,48.9,47.0,30.12,East,82,0.0,0.0,93,0.00,,,0.01,weatherlink.com 1.10,2013-10-31 07:38:00,
2013-10-31 03:53:00,49.2,47.0,30.13,East,82,0.0,1.0,93,0.00,,,0.01,weatherlink.com 1.10,2013-10-31 07:53:00,
2013-10-31 04:08:00,49.7,48.0,30.13,East,82,0.0,0.0,93,0.00,,,0.01,weatherlink.com 1.10,2013-10-31 08:08:00,
2013-10-31 04:38:00,49.5,48.0,30.11,East,82,0.0,0.0,93,0.00,,,0.01,weatherlink.com 1.10,2013-10-31 08:38:00,
2013-10-31 04:53:00,52.1,51.0,30.10,WNW,283,0.0,3.0,94,0.00,,,0.01,weatherlink.com 1.10,2013-10-31 08:53:00,
2013-10-31 05:08:00,53.9,52.0,30.11,WNW,283,0.0,3.0,94,0.00,,,0.01,weatherlink.com 1.10,2013-10-31 09:08:00,
2013-10-31 05:23:00,54.5,52.0,30.10,ENE,73,2.0,3.0,90,0.00,,,0.01,weatherlink.com 1.10,2013-10-31 09:23:00,
2013-10-31 05:38:00,54.4,51.0,30.11,ENE,73,0.0,1.0,89,0.00,,,0.00,weatherlink.com 1.10,2013-10-31 09:38:00,
2013-10-31 05:54:00,54.5,51.0,30.10,ENE,73,0.0,2.0,89,0.00,,,0.00,weatherlink.com 1.10,2013-10-31 09:54:00,
2013-10-31 06:08:00,55.1,52.0,30.11,ENE,73,0.0,2.0,88,0.00,,,0.00,weatherlink.com 1.10,2013-10-31 10:08:00,
2013-10-31 06:23:00,55.8,52.0,30.10,SSW,193,0.0,3.0,86,0.00,,,0.00,weatherlink.com 1.10,2013-10-31 10:23:00,
2013-10-31 06:38:00,56.9,52.0,30.09,West,265,2.0,7.0,84,0.00,,,0.00,weatherlink.com 1.10,2013-10-31 10:38:00,
2013-10-31 06:53:00,57.1,52.0,30.09,West,271,0.0,1.0,83,0.00,,,0.00,weatherlink.com 1.10,2013-10-31 10:53:00,
2013-10-31 07:08:00,56.7,52.0,30.08,West,271,0.0,1.0,84,0.00,,,0.00,weatherlink.com 1.10,2013-10-31 11:08:00,
2013-10-31 07:23:00,56.7,52.0,30.08,West,272,0.0,0.0,83,0.00,,,0.00,weatherlink.com 1.10,2013-10-31 11:23:00,
2013-10-31 07:38:00,56.7,52.0,30.08,West,271,0.0,2.0,83,0.00,,,0.00,weatherlink.com 1.10,2013-10-31 11:38:00,
2013-10-31 07:53:00,56.8,52.0,30.09,West,272,0.0,1.0,83,0.00,,,0.00,weatherlink.com 1.10,2013-10-31 11:53:00,
2013-10-31 08:08:00,56.8,52.0,30.09,WNW,294,0.0,1.0,83,0.00,,,0.00,weatherlink.com 1.10,2013-10-31 12:08:00,
2013-10-31 08:23:00,56.8,52.0,30.09,WNW,294,0.0,1.0,83,0.00,,,0.00,weatherlink.com 1.10,2013-10-31 12:23:00,
2013-10-31 08:38:00,57.9,52.0,30.10,West,277,0.0,7.0,82,0.00,,,0.00,weatherlink.com 1.10,2013-10-31 12:38:00,
2013-10-31 08:54:00,58.6,52.0,30.10,West,261,1.0,2.0,80,0.00,,,0.00,weatherlink.com 1.10,2013-10-31 12:54:00,
2013-10-31 09:09:00,58.8,53.0,30.09,West,263,2.0,5.0,80,0.00,,,0.00,weatherlink.com 1.10,2013-10-31 13:09:00,
2013-10-31 09:24:00,58.9,53.0,30.09,West,271,1.0,3.0,80,0.00,,,0.00,weatherlink.com 1.10,2013-10-31 13:24:00,
2013-10-31 09:40:00,59.3,52.0,30.09,West,275,0.0,5.0,78,0.00,,,0.00,weatherlink.com 1.10,2013-10-31 13:40:00,
2013-10-31 09:54:00,59.6,52.0,30.08,West,259,2.0,7.0,77,0.00,,,0.00,weatherlink.com 1.10,2013-10-31 13:54:00,
2013-10-31 10:09:00,59.8,53.0,30.07,WSW,238,1.0,6.0,77,0.00,,,0.00,weatherlink.com 1.10,2013-10-31 14:09:00,
2013-10-31 10:24:00,60.2,53.0,30.06,West,261,3.0,4.0,76,0.00,,,0.00,weatherlink.com 1.10,2013-10-31 14:24:00,
2013-10-31 10:39:00,60.2,53.0,30.05,WSW,240,1.0,6.0,76,0.00,,,0.00,weatherlink.com 1.10,2013-10-31 14:39:00,
2013-10-31 10:54:00,60.4,53.0,30.04,SW,221,2.0,5.0,76,0.00,,,0.00,weatherlink.com 1.10,2013-10-31 14:54:00,
2013-10-31 11:09:00,60.8,53.0,30.04,SW,214,1.0,4.0,75,0.00,,,0.00,weatherlink.com 1.10,2013-10-31 15:09:00,
2013-10-31 11:24:00,61.1,53.0,30.03,West,273,3.0,5.0,75,0.00,,,0.00,weatherlink.com 1.10,2013-10-31 15:24:00,
2013-10-31 11:39:00,61.3,53.0,30.02,SW,230,1.0,7.0,73,0.00,,,0.00,weatherlink.com 1.10,2013-10-31 15:39:00,
2013-10-31 11:54:00,61.4,53.0,30.03,SW,223,1.0,7.0,73,0.00,,,0.00,weatherlink.com 1.10,2013-10-31 15:54:00,
2013-10-31 12:09:00,61.9,52.0,30.02,SSW,198,2.0,7.0,69,0.00,,,0.00,weatherlink.com 1.10,2013-10-31 16:09:00,
2013-10-31 12:24:00,62.0,51.0,30.01,SW,217,4.0,7.0,68,0.00,,,0.00,weatherlink.com 1.10,2013-10-31 16:24:00,
2013-10-31 12:39:00,62.0,51.0,30.01,SSW,211,0.0,5.0,68,0.00,,,0.00,weatherlink.com 1.10,2013-10-31 16:39:00,
2013-10-31 12:54:00,61.5,51.0,30.01,SW,229,1.0,6.0,68,0.00,,,0.00,weatherlink.com 1.10,2013-10-31 16:54:00,
2013-10-31 13:09:00,61.5,51.0,30.01,ESE,105,1.0,6.0,69,0.00,,,0.00,weatherlink.com 1.10,2013-10-31 17:09:00,
2013-10-31 13:24:00,61.7,51.0,30.00,SSW,196,3.0,7.0,69,0.00,,,0.00,weatherlink.com 1.10,2013-10-31 17:24:00,
2013-10-31 13:39:00,61.7,51.0,30.00,WSW,258,1.0,8.0,67,0.00,,,0.00,weatherlink.com 1.10,2013-10-31 17:39:00,
2013-10-31 13:54:00,61.6,52.0,29.99,SW,215,2.0,4.0,70,0.00,,,0.00,weatherlink.com 1.10,2013-10-31 17:54:00,
2013-10-31 14:09:00,60.6,53.0,29.98,SW,233,0.0,4.0,75,0.00,,,0.00,weatherlink.com 1.10,2013-10-31 18:09:00,
2013-10-31 14:27:00,60.2,52.0,29.98,SW,214,0.0,3.0,75,0.00,,,0.00,weatherlink.com 1.10,2013-10-31 18:27:00,
2013-10-31 14:39:00,60.3,52.0,29.98,SW,235,0.0,4.0,74,0.00,,,0.00,weatherlink.com 1.10,2013-10-31 18:39:00,
2013-10-31 14:54:00,60.5,52.0,29.97,WSW,249,3.0,8.0,73,0.00,,,0.00,weatherlink.com 1.10,2013-10-31 18:54:00,
2013-10-31 15:09:00,60.5,52.0,29.94,SW,227,2.0,5.0,73,0.00,,,0.00,weatherlink.com 1.10,2013-10-31 19:09:00,
2013-10-31 15:24:00,60.7,52.0,29.95,SW,218,2.0,6.0,73,0.00,,,0.00,weatherlink.com 1.10,2013-10-31 19:24:00,
2013-10-31 15:39:00,60.9,52.0,29.94,SW,232,1.0,5.0,73,0.00,,,0.00,weatherlink.com 1.10,2013-10-31 19:39:00,
2013-10-31 15:54:00,60.5,52.0,29.92,WSW,250,3.0,7.0,74,0.00,,,0.00,weatherlink.com 1.10,2013-10-31 19:54:00,
2013-10-31 16:09:00,59.9,52.0,29.92,West,261,5.0,6.0,76,0.00,,,0.00,weatherlink.com 1.10,2013-10-31 20:09:00,
2013-10-31 16:24:00,59.5,52.0,29.92,West,271,1.0,8.0,77,0.00,,,0.00,weatherlink.com 1.10,2013-10-31 20:24:00,
2013-10-31 16:39:00,59.1,52.0,29.92,SSW,212,1.0,8.0,78,0.00,,,0.00,weatherlink.com 1.10,2013-10-31 20:39:00,
2013-10-31 16:54:00,58.9,52.0,29.92,SW,224,0.0,5.0,79,0.00,,,0.00,weatherlink.com 1.10,2013-10-31 20:54:00,
2013-10-31 17:09:00,58.9,53.0,29.91,SW,221,4.0,6.0,80,0.00,,,0.00,weatherlink.com 1.10,2013-10-31 21:09:00,
2013-10-31 17:24:00,58.7,53.0,29.91,SW,215,1.0,6.0,80,0.00,,,0.00,weatherlink.com 1.10,2013-10-31 21:24:00,
2013-10-31 17:39:00,58.5,53.0,29.91,WSW,242,1.0,9.0,81,0.00,,,0.00,weatherlink.com 1.10,2013-10-31 21:39:00,
2013-10-31 17:54:00,58.5,53.0,29.90,SW,217,2.0,6.0,82,0.00,,,0.00,weatherlink.com 1.10,2013-10-31 21:54:00,
2013-10-31 18:09:00,58.4,53.0,29.90,West,269,0.0,8.0,82,0.00,,,0.00,weatherlink.com 1.10,2013-10-31 22:09:00,
2013-10-31 18:24:00,58.5,53.0,29.89,SW,229,5.0,7.0,82,0.00,,,0.00,weatherlink.com 1.10,2013-10-31 22:24:00,
2013-10-31 18:39:00,58.7,53.0,29.89,SW,215,2.0,5.0,82,0.00,,,0.00,weatherlink.com 1.10,2013-10-31 22:39:00,
2013-10-31 18:54:00,58.7,53.0,29.90,WSW,246,2.0,8.0,82,0.00,,,0.00,weatherlink.com 1.10,2013-10-31 22:54:00,
2013-10-31 19:09:00,58.7,54.0,29.89,West,271,2.0,6.0,83,0.00,,,0.00,weatherlink.com 1.10,2013-10-31 23:09:00,
2013-10-31 19:24:00,59.3,54.0,29.91,SSW,213,3.0,8.0,82,0.00,,,0.00,weatherlink.com 1.10,2013-10-31 23:24:00,
2013-10-31 19:39:00,59.8,54.0,29.89,SW,235,0.0,6.0,81,0.00,,,0.00,weatherlink.com 1.10,2013-10-31 23:39:00,
2013-10-31 19:55:00,61.1,54.0,29.89,WSW,249,6.0,13.0,77,0.00,,,0.00,weatherlink.com 1.10,2013-10-31 23:55:00,
2013-10-31 20:10:00,62.5,54.0,29.89,SW,228,0.0,10.0,74,0.00,,,0.00,weatherlink.com 1.10,2013-11-01 00:10:00,
2013-10-31 20:25:00,62.9,54.0,29.89,West,265,4.0,11.0,72,0.00,,,0.00,weatherlink.com 1.10,2013-11-01 00:25:00,
2013-10-31 20:40:00,63.4,54.0,29.88,WSW,252,4.0,10.0,71,0.00,,,0.00,weatherlink.com 1.10,2013-11-01 00:40:00,
2013-10-31 20:55:00,63.4,54.0,29.89,WSW,237,4.0,11.0,71,0.00,,,0.00,weatherlink.com 1.10,2013-11-01 00:55:00,
2013-10-31 21:10:00,63.5,54.0,29.87,SW,219,3.0,7.0,72,0.00,,,0.00,weatherlink.com 1.10,2013-11-01 01:10:00,
2013-10-31 21:25:00,62.6,55.0,29.86,NE,54,1.0,7.0,76,0.00,,,0.00,weatherlink.com 1.10,2013-11-01 01:25:00,
2013-10-31 21:40:00,62.8,54.0,29.86,WNW,297,2.0,7.0,74,0.00,,,0.00,weatherlink.com 1.10,2013-11-01 01:40:00,
2013-10-31 21:55:00,63.6,56.0,29.84,SSE,150,0.0,10.0,75,0.00,,,0.00,weatherlink.com 1.10,2013-11-01 01:55:00,
2013-10-31 22:10:00,63.4,56.0,29.85,West,265,0.0,9.0,76,0.00,,,0.00,weatherlink.com 1.10,2013-11-01 02:10:00,
2013-10-31 22:25:00,63.4,56.0,29.84,WSW,250,2.0,6.0,78,0.00,,,0.00,weatherlink.com 1.10,2013-11-01 02:25:00,
2013-10-31 22:40:00,62.1,57.0,29.84,SW,219,2.0,6.0,82,0.00,,,0.00,weatherlink.com 1.10,2013-11-01 02:40:00,
2013-10-31 22:55:00,61.2,56.0,29.84,SW,214,3.0,10.0,83,0.00,,,0.00,weatherlink.com 1.10,2013-11-01 02:55:00,
2013-10-31 23:10:00,61.0,56.0,29.83,WSW,254,4.0,6.0,84,0.00,,,0.00,weatherlink.com 1.10,2013-11-01 03:10:00,
2013-10-31 23:25:00,61.2,56.0,29.81,WSW,242,5.0,8.0,84,0.00,,,0.00,weatherlink.com 1.10,2013-11-01 03:25:00,
2013-10-31 23:40:00,61.3,57.0,29.80,SW,232,0.0,12.0,84,0.00,,,0.00,weatherlink.com 1.10,2013-11-01 03:40:00,
2013-10-31 23:55:00,60.6,57.0,29.79,WNW,286,3.0,8.0,87,0.00,,,0.00,weatherlink.com 1.10,2013-11-01 03:55:00,